Terminal Aerodrome Forecast
Issued by NWS Denver/Boulder, CO

Home | Current Version | Previous Version | Text Only | Print | Product List | Glossary On
Versions: 1 2 3 4 5 6 7 8 9 10 11 12 13 14 15 16 17 18 19 20 21 22 23 24 25 26 27 28 29 30 31 32 33 34 35 36 37 38 39 40 41 42 43 44 45 46 47 48 49 50
255
FTUS45 KBOU 211508 AAC
TAFDEN
TAF AMD
KDEN 211508Z 2115/2218 03017G25KT P6SM -SHRA BKN030 OVC060
     FM211800 06014KT P6SM SCT040 BKN060
     FM212300 15007KT P6SM FEW060 SCT150
     FM220100 20008KT P6SM FEW110 SCT250=

USA.gov is the U.S. government's official web portal to all federal, state and local government web resources and services.